UAE188 KMIA-OMDB

Flight info

Callsign UAE188
Flight time N/A
Altitude 31000
Route FOLZZ3 SUMRS/M084F310 DCT JIMAC DCT BALOO DCT 35N060W/M084F330 37N050W 3730N04000W 3730N03000W 3730N02000W/M084F350 DCT LUTAK/N0485F350 DCT MINTA/N0487F340 DCT SVL/N0484F350 DCT CARBO UM744 MOS UA411 DAHRA DCT BNA UA31 BABOR UZ888 DIMAO UL874 OMENI DCT DEMAG/N0482F370 DCT GUDIS DCT KAVOS DCT EVORA DCT LAKTO L324 GENIV L550 KARIK DCT DEESA Y415 LOTOK P559 VUTEB
Aircraft B77W/H-SDE1E2E3FGHIJ2J3J4J5M1RWXY/LB1D1

Departure

Time 2026-04-30 21:00
Airport Miami International Airport (KMIA)

Arrival

Time N/A
Airport Dubai International Airport (OMDB)
Time Latitude Longitude Altitude Speed Heading
2026-04-30 19:40 25.79170 -80.28238 23 ft 0 kts 62°
2026-04-30 20:48 25.79169 -80.28238 20 ft 1 kts 62°
2026-04-30 20:49 25.79161 -80.28253 22 ft 2 kts 51°
2026-04-30 20:49 25.79149 -80.28266 24 ft 2 kts 30°
2026-04-30 20:49 25.79134 -80.28272 25 ft 2 kts 352°
2026-04-30 20:50 25.79111 -80.28258 25 ft 1 kts 304°
2026-04-30 20:53 25.79126 -80.28288 23 ft 8 kts 298°
2026-04-30 20:53 25.79153 -80.28346 20 ft 9 kts 295°
2026-04-30 20:53 25.79152 -80.28422 20 ft 11 kts 272°
2026-04-30 20:54 25.79215 -80.28592 19 ft 14 kts 297°
2026-04-30 20:54 25.79262 -80.28686 19 ft 16 kts 299°
2026-04-30 20:54 25.79319 -80.28798 19 ft 18 kts 300°
2026-04-30 20:55 25.79449 -80.29047 19 ft 20 kts 300°
2026-04-30 20:55 25.79517 -80.29181 20 ft 21 kts 299°
2026-04-30 20:55 25.79591 -80.29326 20 ft 23 kts 299°
2026-04-30 20:56 25.79746 -80.29632 19 ft 23 kts 300°
2026-04-30 20:56 25.79827 -80.29784 19 ft 23 kts 301°
2026-04-30 20:56 25.79939 -80.30006 18 ft 0 kts 299°
2026-04-30 20:58 25.79948 -80.30024 18 ft 4 kts 300°
2026-04-30 20:58 25.79967 -80.30059 18 ft 9 kts 300°
2026-04-30 20:58 25.80033 -80.30110 19 ft 14 kts 11°
2026-04-30 20:58 25.80073 -80.30014 17 ft 17 kts 84°
2026-04-30 20:59 25.80125 -80.28891 26 ft 152 kts 86°
2026-04-30 20:59 25.80172 -80.27445 139 ft 207 kts 88°
2026-04-30 21:00 25.79780 -80.24410 1845 ft 208 kts 123°
2026-04-30 21:00 25.78263 -80.21235 2167 ft 256 kts 119°
2026-04-30 21:01 25.76580 -80.17542 3103 ft 280 kts 121°
2026-04-30 21:01 25.75642 -80.15634 3815 ft 282 kts 120°
2026-04-30 21:01 25.74229 -80.11549 4986 ft 291 kts 84°
2026-04-30 21:02 25.74801 -80.09428 5566 ft 290 kts 54°
2026-04-30 21:02 25.76059 -80.07692 6119 ft 290 kts 46°
2026-04-30 21:02 25.77398 -80.06001 6747 ft 291 kts 46°
2026-04-30 21:02 25.78749 -80.04304 7359 ft 295 kts 45°
2026-04-30 21:03 25.80095 -80.02615 7980 ft 297 kts 45°
2026-04-30 21:03 25.81471 -80.00887 8577 ft 300 kts 46°
2026-04-30 21:03 25.82858 -79.99137 9203 ft 303 kts 46°
2026-04-30 21:03 25.84253 -79.97371 9828 ft 305 kts 46°
2026-04-30 21:04 25.85658 -79.95591 10321 ft 311 kts 46°
2026-04-30 21:04 25.87135 -79.93721 10486 ft 332 kts 46°
2026-04-30 21:04 25.90350 -79.89642 10809 ft 371 kts 46°
2026-04-30 21:05 25.92079 -79.87441 11079 ft 385 kts 46°
2026-04-30 21:05 25.93866 -79.85163 11548 ft 394 kts 46°
2026-04-30 21:05 25.95679 -79.82850 12139 ft 398 kts 46°
2026-04-30 21:05 25.97505 -79.80519 12846 ft 400 kts 46°
2026-04-30 21:06 25.99315 -79.78206 13473 ft 404 kts 46°
2026-04-30 21:06 26.01156 -79.75854 14013 ft 409 kts 46°
2026-04-30 21:06 26.03036 -79.73452 14564 ft 412 kts 46°
2026-04-30 21:06 26.04922 -79.71040 15149 ft 415 kts 46°
2026-04-30 21:07 26.06803 -79.68633 15719 ft 418 kts 46°
2026-04-30 21:07 26.08743 -79.66152 16300 ft 422 kts 46°
2026-04-30 21:07 26.10683 -79.63668 16859 ft 425 kts 47°
2026-04-30 21:07 26.12516 -79.61067 17407 ft 430 kts 51°
2026-04-30 21:08 26.14245 -79.58325 17960 ft 434 kts 53°
2026-04-30 21:08 26.15949 -79.55530 18460 ft 438 kts 53°
2026-04-30 21:08 26.17671 -79.52719 18924 ft 441 kts 53°
2026-04-30 21:08 26.19427 -79.49893 19333 ft 446 kts 52°
2026-04-30 21:09 26.21192 -79.47088 19697 ft 451 kts 52°
2026-04-30 21:09 26.23006 -79.44223 20148 ft 454 kts 52°
2026-04-30 21:09 26.24830 -79.41346 20635 ft 455 kts 52°
2026-04-30 21:09 26.26661 -79.38454 21095 ft 457 kts 52°
2026-04-30 21:10 26.28535 -79.35580 21469 ft 458 kts 47°
2026-04-30 21:10 26.30872 -79.33195 21747 ft 454 kts 30°
2026-04-30 21:10 26.33555 -79.31335 22047 ft 457 kts 28°
2026-04-30 21:10 26.36289 -79.29489 22402 ft 461 kts 28°
2026-04-30 21:11 26.39036 -79.27617 22825 ft 463 kts 28°
2026-04-30 21:11 26.41780 -79.25719 23230 ft 465 kts 29°
2026-04-30 21:11 26.44531 -79.23790 23582 ft 468 kts 29°
2026-04-30 21:11 26.47296 -79.21831 23871 ft 472 kts 29°
2026-04-30 21:12 26.50082 -79.19846 24093 ft 477 kts 29°
2026-04-30 21:12 26.52883 -79.17844 24398 ft 479 kts 29°
2026-04-30 21:12 26.54748 -79.16508 24628 ft 480 kts 29°
2026-04-30 21:12 26.57559 -79.14494 24972 ft 481 kts 29°
2026-04-30 21:13 26.60380 -79.12473 25287 ft 483 kts 29°
2026-04-30 21:13 26.63223 -79.10437 25585 ft 486 kts 29°
2026-04-30 21:13 26.67006 -79.07727 25960 ft 489 kts 29°
2026-04-30 21:13 26.69880 -79.05667 26273 ft 491 kts 29°
2026-04-30 21:14 26.71825 -79.04272 26533 ft 491 kts 29°
2026-04-30 21:14 26.74705 -79.02205 26917 ft 492 kts 28°
2026-04-30 21:14 26.77592 -79.00133 27139 ft 496 kts 28°
2026-04-30 21:14 26.80404 -78.98114 27375 ft 499 kts 28°
2026-04-30 21:15 26.83300 -78.96032 27648 ft 501 kts 28°
2026-04-30 21:15 26.86271 -78.93895 27962 ft 503 kts 28°
2026-04-30 21:15 26.89184 -78.91798 28243 ft 504 kts 28°
2026-04-30 21:15 26.92136 -78.89671 28510 ft 506 kts 28°
2026-04-30 21:16 26.95141 -78.87505 28777 ft 508 kts 28°
2026-04-30 21:16 26.98083 -78.85383 29005 ft 510 kts 28°
2026-04-30 21:16 27.01061 -78.83234 29326 ft 510 kts 28°
2026-04-30 21:16 27.04041 -78.81081 29734 ft 509 kts 28°
2026-04-30 21:17 27.07018 -78.78928 30087 ft 508 kts 28°
2026-04-30 21:17 27.09989 -78.76779 30429 ft 507 kts 28°
2026-04-30 21:17 27.12943 -78.74641 30796 ft 504 kts 28°
2026-04-30 21:17 27.15892 -78.72506 30951 ft 506 kts 28°
2026-04-30 21:18 27.21803 -78.68221 30940 ft 503 kts 27°
2026-04-30 21:18 27.27648 -78.63958 30930 ft 501 kts 30°
2026-04-30 21:19 27.30273 -78.61361 30915 ft 506 kts 45°
2026-04-30 21:19 27.32473 -78.58250 30950 ft 511 kts 48°
2026-04-30 21:19 27.36813 -78.51799 30944 ft 519 kts 48°
2026-04-30 21:20 27.41197 -78.45356 30937 ft 518 kts 47°
2026-04-30 21:20 27.45639 -78.38969 30937 ft 517 kts 47°
2026-04-30 21:21 27.50089 -78.32621 30931 ft 516 kts 47°
2026-04-30 21:22 27.56726 -78.23137 30954 ft 515 kts 47°
2026-04-30 21:23 27.65585 -78.10419 30939 ft 515 kts 47°
2026-04-30 21:23 27.72208 -78.00886 30937 ft 516 kts 47°
2026-04-30 21:24 27.76561 -77.94610 30939 ft 516 kts 47°
2026-04-30 21:24 27.80954 -77.88265 30935 ft 516 kts 47°
2026-04-30 21:25 27.87588 -77.78668 31000 ft 515 kts 47°
2026-04-30 21:25 27.89787 -77.75482 31131 ft 516 kts 47°
2026-04-30 21:26 27.94222 -77.69052 31371 ft 520 kts 47°
2026-04-30 21:26 27.96451 -77.65816 31498 ft 521 kts 47°
2026-04-30 21:27 28.00884 -77.59372 31733 ft 524 kts 47°
2026-04-30 21:27 28.03123 -77.56112 31881 ft 524 kts 47°
2026-04-30 21:27 28.05365 -77.52846 31991 ft 524 kts 47°
2026-04-30 21:28 28.09821 -77.46344 32242 ft 520 kts 47°
2026-04-30 21:28 28.12036 -77.43109 32350 ft 518 kts 47°
2026-04-30 21:28 28.16442 -77.36670 32603 ft 517 kts 47°
2026-04-30 21:29 28.18645 -77.33447 32742 ft 516 kts 47°
2026-04-30 21:29 28.25178 -77.23874 32926 ft 511 kts 46°
2026-04-30 21:30 28.29512 -77.17511 32932 ft 508 kts 46°
2026-04-30 21:31 28.40260 -77.01694 32933 ft 506 kts 46°
2026-04-30 21:32 28.46662 -76.92246 32935 ft 509 kts 46°
2026-04-30 21:32 28.50989 -76.85844 32941 ft 512 kts 46°
2026-04-30 21:33 28.57496 -76.76198 32923 ft 512 kts 46°
2026-04-30 21:34 28.61801 -76.69804 32925 ft 512 kts 46°
2026-04-30 21:34 28.68286 -76.60153 32923 ft 511 kts 46°
2026-04-30 21:35 28.72511 -76.53634 32916 ft 514 kts 52°
2026-04-30 21:35 28.76062 -76.46522 32935 ft 518 kts 57°
2026-04-30 21:36 28.79363 -76.39268 32928 ft 518 kts 57°
2026-04-30 21:37 28.86198 -76.24821 32924 ft 517 kts 56°
2026-04-30 21:37 28.89685 -76.17619 32924 ft 518 kts 56°
2026-04-30 21:38 28.93176 -76.10393 32931 ft 519 kts 55°
2026-04-30 21:38 28.96658 -76.03156 32919 ft 520 kts 55°
2026-04-30 21:39 29.00031 -75.96125 32918 ft 519 kts 55°
2026-04-30 21:39 29.03503 -75.88874 32921 ft 519 kts 56°
2026-04-30 21:40 29.06965 -75.81634 32939 ft 518 kts 55°
2026-04-30 21:40 29.10421 -75.74392 32930 ft 519 kts 55°
2026-04-30 21:41 29.13871 -75.67152 32921 ft 519 kts 55°
2026-04-30 21:41 29.17319 -75.59903 32917 ft 518 kts 55°
2026-04-30 21:42 29.20746 -75.52685 32919 ft 518 kts 55°
2026-04-30 21:42 29.24185 -75.45428 32917 ft 518 kts 55°
2026-04-30 21:43 29.27622 -75.38161 32918 ft 518 kts 55°
2026-04-30 21:43 29.31056 -75.30890 32921 ft 519 kts 55°
2026-04-30 21:44 29.34496 -75.23593 32922 ft 520 kts 55°
2026-04-30 21:44 29.37932 -75.16291 32914 ft 521 kts 56°
2026-04-30 21:45 29.41351 -75.09009 32919 ft 522 kts 56°
2026-04-30 21:45 29.44793 -75.01666 32933 ft 522 kts 55°
2026-04-30 21:46 29.48161 -74.94464 32915 ft 522 kts 56°
2026-04-30 21:46 29.51595 -74.87111 32913 ft 521 kts 56°
2026-04-30 21:47 29.55018 -74.79767 32926 ft 521 kts 56°
2026-04-30 21:47 29.58435 -74.72424 32922 ft 521 kts 56°
2026-04-30 21:48 29.61849 -74.65073 32918 ft 521 kts 56°
2026-04-30 21:48 29.65260 -74.57716 32923 ft 521 kts 56°
2026-04-30 21:49 29.68648 -74.50395 32918 ft 521 kts 56°
2026-04-30 21:49 29.72055 -74.43017 32916 ft 522 kts 56°
2026-04-30 21:50 29.75459 -74.35632 32930 ft 522 kts 56°
2026-04-30 21:50 29.78859 -74.28242 32917 ft 522 kts 56°
2026-04-30 21:51 29.82258 -74.20841 32916 ft 522 kts 56°
2026-04-30 21:51 29.85628 -74.13488 32913 ft 522 kts 56°
2026-04-30 21:52 29.89015 -74.06083 32912 ft 522 kts 56°
2026-04-30 21:52 29.92325 -73.98835 32917 ft 522 kts 56°
2026-04-30 21:53 29.95706 -73.91417 32936 ft 522 kts 56°
2026-04-30 21:53 29.99090 -73.83980 32926 ft 523 kts 56°
2026-04-30 21:54 30.02455 -73.76568 32925 ft 523 kts 56°
2026-04-30 21:54 30.05829 -73.69122 32920 ft 523 kts 56°
2026-04-30 21:55 30.09200 -73.61669 32924 ft 523 kts 57°
2026-04-30 21:55 30.12562 -73.54220 32920 ft 523 kts 57°
2026-04-30 21:56 30.15894 -73.46825 32922 ft 522 kts 57°
2026-04-30 21:56 30.19244 -73.39375 32936 ft 522 kts 57°
2026-04-30 21:57 30.22595 -73.31910 32917 ft 523 kts 57°
2026-04-30 21:57 30.25944 -73.24435 32930 ft 523 kts 57°
2026-04-30 21:58 30.29286 -73.16958 32929 ft 523 kts 57°
2026-04-30 21:58 30.32065 -73.10731 32928 ft 523 kts 57°
2026-04-30 21:59 30.35401 -73.03242 32915 ft 524 kts 58°
2026-04-30 22:00 30.40351 -72.92102 32925 ft 525 kts 58°
2026-04-30 22:00 30.45357 -72.80804 32926 ft 525 kts 58°
2026-04-30 22:01 30.48683 -72.73278 32926 ft 525 kts 58°
2026-04-30 22:01 30.52007 -72.65743 32922 ft 524 kts 58°
2026-04-30 22:02 30.55307 -72.58246 32921 ft 524 kts 58°
2026-04-30 22:02 30.58619 -72.50707 32927 ft 524 kts 58°
2026-04-30 22:03 30.61929 -72.43160 32935 ft 525 kts 58°
2026-04-30 22:03 30.65243 -72.35589 32932 ft 526 kts 58°
2026-04-30 22:04 30.68557 -72.27999 32928 ft 527 kts 59°
2026-04-30 22:05 30.73518 -72.16612 32929 ft 529 kts 59°
2026-04-30 22:05 30.76833 -72.08981 32930 ft 530 kts 59°
2026-04-30 22:06 30.80158 -72.01313 32944 ft 531 kts 59°
2026-04-30 22:06 30.85081 -71.89931 32923 ft 532 kts 60°
2026-04-30 22:07 30.88408 -71.82220 32920 ft 532 kts 60°
2026-04-30 22:07 30.91729 -71.74503 32930 ft 532 kts 60°
2026-04-30 22:08 30.95022 -71.66838 32919 ft 531 kts 60°
2026-04-30 22:08 30.98328 -71.59128 32921 ft 531 kts 60°
2026-04-30 22:09 31.01622 -71.51427 32926 ft 531 kts 60°
2026-04-30 22:09 31.04912 -71.43723 32925 ft 531 kts 60°
2026-04-30 22:10 31.08200 -71.36009 32922 ft 531 kts 60°
2026-04-30 22:10 31.11460 -71.28341 32924 ft 531 kts 60°
2026-04-30 22:11 31.16384 -71.16729 32919 ft 532 kts 60°
2026-04-30 22:12 31.19660 -71.08984 32937 ft 532 kts 60°
2026-04-30 22:12 31.22945 -71.01201 32924 ft 535 kts 59°
2026-04-30 22:13 31.26190 -70.93501 32928 ft 537 kts 60°
2026-04-30 22:13 31.29490 -70.85649 32921 ft 538 kts 60°
2026-04-30 22:14 31.32770 -70.77826 32916 ft 538 kts 60°
2026-04-30 22:14 31.36068 -70.69942 32911 ft 537 kts 60°
2026-04-30 22:15 31.39341 -70.62103 32936 ft 536 kts 60°
2026-04-30 22:15 31.42610 -70.54259 32914 ft 536 kts 60°
2026-04-30 22:16 31.45872 -70.46415 32912 ft 535 kts 60°
2026-04-30 22:17 31.52360 -70.30761 32909 ft 536 kts 60°
2026-04-30 22:17 31.57235 -70.18953 32908 ft 536 kts 60°
2026-04-30 22:18 31.62118 -70.07090 32924 ft 539 kts 61°
2026-04-30 22:19 31.66939 -69.95336 32903 ft 541 kts 61°
2026-04-30 22:20 31.71834 -69.83360 32908 ft 542 kts 61°
2026-04-30 22:20 31.76695 -69.71430 32912 ft 541 kts 61°
2026-04-30 22:21 31.79935 -69.63453 32913 ft 539 kts 61°
2026-04-30 22:21 31.83159 -69.55501 32915 ft 538 kts 61°
2026-04-30 22:22 31.86369 -69.47562 32924 ft 536 kts 60°
2026-04-30 22:22 31.89563 -69.39649 32908 ft 533 kts 60°
2026-04-30 22:23 31.92734 -69.31777 32906 ft 530 kts 60°
2026-04-30 22:23 31.95887 -69.23931 32912 ft 530 kts 61°
2026-04-30 22:24 31.99038 -69.16073 32923 ft 531 kts 61°
2026-04-30 22:24 32.02165 -69.08257 32906 ft 532 kts 61°
2026-04-30 22:25 32.05318 -69.00358 32917 ft 533 kts 61°
2026-04-30 22:25 32.08427 -68.92550 32916 ft 534 kts 61°
2026-04-30 22:26 32.13149 -68.80659 32923 ft 534 kts 61°
2026-04-30 22:27 32.16299 -68.72704 32912 ft 534 kts 61°
2026-04-30 22:27 32.20983 -68.60842 32909 ft 533 kts 61°
2026-04-30 22:28 32.25676 -68.48913 32917 ft 532 kts 61°
2026-04-30 22:29 32.31888 -68.33060 32917 ft 531 kts 61°
2026-04-30 22:31 32.42430 -68.05079 32909 ft 532 kts 63°
2026-04-30 22:32 32.49688 -67.85161 32914 ft 532 kts 63°
2026-04-30 22:33 32.57007 -67.65030 32912 ft 532 kts 63°
2026-04-30 22:35 32.64297 -67.44847 32927 ft 532 kts 63°
2026-04-30 22:36 32.71542 -67.24669 32909 ft 532 kts 63°
2026-04-30 22:37 32.77321 -67.08485 32907 ft 532 kts 63°
2026-04-30 22:38 32.83025 -66.92434 32916 ft 534 kts 63°
2026-04-30 22:39 32.87337 -66.80247 32913 ft 536 kts 63°
2026-04-30 22:40 32.95968 -66.55712 32921 ft 535 kts 64°
2026-04-30 22:41 33.03123 -66.35238 32905 ft 535 kts 64°
2026-04-30 22:43 33.11169 -66.12054 32902 ft 535 kts 64°
2026-04-30 22:44 33.16786 -65.95772 32889 ft 536 kts 64°
2026-04-30 22:45 33.25269 -65.71023 32904 ft 536 kts 64°
2026-04-30 22:47 33.33692 -65.46256 32902 ft 537 kts 65°
2026-04-30 22:48 33.39291 -65.29688 32919 ft 536 kts 65°
2026-04-30 22:49 33.47580 -65.04998 32904 ft 531 kts 65°
2026-04-30 22:51 33.55757 -64.80453 32910 ft 532 kts 65°
2026-04-30 22:52 33.59865 -64.68051 32925 ft 535 kts 65°
2026-04-30 22:53 33.65359 -64.51381 32912 ft 538 kts 65°
2026-04-30 22:53 33.69477 -64.38829 32911 ft 538 kts 66°
2026-04-30 22:55 33.76278 -64.17985 32909 ft 535 kts 66°
2026-04-30 22:56 33.81668 -64.01367 32911 ft 531 kts 66°
2026-04-30 22:57 33.88286 -63.80840 32913 ft 529 kts 66°
2026-04-30 22:58 33.93572 -63.64345 32912 ft 529 kts 66°
2026-04-30 22:59 34.01448 -63.39602 32909 ft 529 kts 66°
2026-05-01 07:23 36.87154 -8.76335 7 ft 0 kts 200°
2026-05-01 07:25 36.87154 -8.76336 7 ft 0 kts 200°
2026-05-01 07:27 36.87155 -8.76336 7 ft 0 kts 201°
2026-05-01 07:29 36.87155 -8.76337 4 ft 0 kts 201°
2026-05-01 07:31 36.87156 -8.76337 4 ft 0 kts 201°
2026-05-01 07:33 36.87156 -8.76338 4 ft 0 kts 201°
2026-05-01 07:35 36.87157 -8.76338 4 ft 0 kts 201°
2026-05-01 07:37 36.87157 -8.76339 4 ft 0 kts 201°
2026-05-01 07:39 36.87158 -8.76339 4 ft 0 kts 202°
2026-05-01 07:41 36.87158 -8.76340 4 ft 0 kts 202°
2026-05-01 07:43 36.87159 -8.76340 4 ft 0 kts 202°
2026-05-01 07:45 36.87159 -8.76341 4 ft 0 kts 202°
2026-05-01 07:48 36.87160 -8.76341 4 ft 0 kts 202°
2026-05-01 07:49 36.87160 -8.76342 4 ft 0 kts 203°
2026-05-01 07:52 36.87161 -8.76342 4 ft 0 kts 203°
2026-05-01 07:53 36.87161 -8.76343 4 ft 0 kts 203°
2026-05-01 07:56 36.87162 -8.76343 4 ft 0 kts 204°
2026-05-01 07:57 36.87162 -8.76344 7 ft 0 kts 204°
2026-05-01 08:00 36.87163 -8.76344 4 ft 0 kts 204°
2026-05-01 08:01 36.87163 -8.76345 4 ft 0 kts 204°
2026-05-01 08:03 36.87164 -8.76345 7 ft 0 kts 204°
2026-05-01 08:05 36.87164 -8.76346 7 ft 0 kts 204°
2026-05-01 08:07 36.87165 -8.76346 7 ft 0 kts 205°
2026-05-01 08:10 36.87165 -8.76347 7 ft 0 kts 205°
2026-05-01 08:11 36.87166 -8.76347 7 ft 0 kts 205°
2026-05-01 08:14 36.87166 -8.76348 7 ft 0 kts 205°
2026-05-01 08:15 36.87167 -8.76348 7 ft 0 kts 205°
2026-05-01 08:18 36.87167 -8.76349 7 ft 0 kts 206°
2026-05-01 08:19 36.87168 -8.76349 7 ft 0 kts 206°